Date,TemperatureHighF,TemperatureAvgF,TemperatureLowF,DewpointHighF,DewpointAvgF,DewpointLowF,HumidityHigh,HumidityAvg,HumidityLow,PressureMaxIn,PressureMinIn,WindSpeedMaxMPH,WindSpeedAvgMPH,GustSpeedMaxMPH,PrecipitationSumIn
2013-1-1,65,54,47,-100,-100,-100,0,0,100,0.00,40.00,0,-999,0,0.00
2013-1-2,45,42,40,-100,-100,-100,0,0,100,0.00,40.00,0,-999,0,0.00
2013-1-3,49,43,39,-100,-100,-100,0,0,100,0.00,40.00,0,-999,0,0.00
2013-1-4,46,43,38,-100,-100,-100,0,0,100,0.00,40.00,0,-999,0,0.00
2013-1-5,43,42,41,-100,-100,-100,0,0,100,0.00,40.00,0,-999,0,0.00
2013-1-6,54,44,39,-100,-100,-100,0,0,100,0.00,40.00,0,-999,0,0.00
2013-1-7,55,41,32,-100,-100,-100,0,0,100,0.00,40.00,0,-999,0,0.00
2013-1-8,60,53,46,-100,-100,-100,0,0,100,0.00,40.00,0,-999,0,0.00
2013-1-9,64,62,59,-100,-100,-100,0,0,100,0.00,40.00,0,-999,0,0.00
2013-1-10,63,62,59,-100,-100,-100,0,0,100,0.00,40.00,0,-999,0,0.00
2013-1-11,69,59,48,-100,-100,-100,0,0,100,0.00,40.00,0,-999,0,0.00
2013-1-12,73,70,68,-100,-100,-100,0,0,100,0.00,40.00,0,-999,0,0.00
2013-1-13,70,53,42,-100,-100,-100,0,0,100,0.00,40.00,0,-999,0,0.00
2013-1-14,43,38,35,-100,-100,-100,0,0,100,0.00,40.00,0,-999,0,0.00
2013-1-15,35,34,32,-100,-100,-100,0,0,100,0.00,40.00,0,-999,0,0.00
2013-1-16,41,35,32,-100,-100,-100,0,0,100,0.00,40.00,0,-999,0,0.00
2013-1-17,53,40,29,-100,-100,-100,0,0,100,0.00,40.00,0,-999,0,0.00
2013-1-18,56,40,30,-100,-100,-100,0,0,100,0.00,40.00,0,-999,0,0.00
2013-1-19,62,41,29,-100,-100,-100,0,0,100,0.00,40.00,0,-999,0,0.00
2013-1-20,65,48,32,-100,-100,-100,0,0,100,0.00,40.00,0,-999,0,0.00
2013-1-21,67,50,36,-100,-100,-100,0,0,100,0.00,40.00,0,-999,0,0.00
2013-1-22,64,50,40,-100,-100,-100,0,0,100,0.00,40.00,0,-999,0,0.00
2013-1-23,69,51,40,-100,-100,-100,0,0,100,0.00,40.00,0,-999,0,0.00
2013-1-24,69,59,47,-100,-100,-100,0,0,100,0.00,40.00,0,-999,0,0.00
2013-1-25,73,60,52,-100,-100,-100,0,0,100,0.00,40.00,0,-999,0,0.00
2013-1-26,71,60,54,-100,-100,-100,0,0,100,0.00,40.00,0,-999,0,0.00
2013-1-27,72,55,47,-100,-100,-100,0,0,100,0.00,40.00,0,-999,0,0.00
2013-1-28,70,65,62,-100,-100,-100,0,0,100,0.00,40.00,0,-999,0,0.00
2013-1-29,73,69,66,-100,-100,-100,0,0,100,0.00,40.00,0,-999,0,0.00
2013-1-30,71,50,37,-100,-100,-100,0,0,100,0.00,40.00,0,-999,0,0.00
2013-1-31,60,52,42,-100,-100,-100,0,0,100,0.00,40.00,0,-999,0,0.00